Miscellaneous Local Product
Issued by NWS North Platte, NE

Home | Current Version | Previous Version | Text Only | Print | Product List | Glossary On
Versions: 1 2 3 4 5 6 7 8 9 10 11 12 13 14 15 16 17 18 19 20 21 22 23 24 25 26 27 28 29 30 31 32 33 34 35 36 37 38 39 40 41 42 43 44 45 46 47 48 49 50
000
AXUS43 KLBF 311810
MISLBF


WESTERN AND NORTH CENTRAL NEBRASKA HOURLY WEATHER ROUNDUP
NATIONAL WEATHER SERVICE NORTH PLATTE NE
100 PM CDT THU JUL 31 2014

***STATIONS NOT REPORTING VARIABLES SUCH AS SKY/WEATHER OR
PRESSURE ARE PROVIDED BY THE NEBRASKA DEPARTMENT OF
ROADS...RAWS...AND APRS NETWORKS...AND ARE NOT UNDER
NATIONAL WEATHER SERVICE QUALITY CONTROL***

...OBSERVATIONS IN AND NEAR THE EASTERN PANHANDLE OF NEBRASKA...

CITY           SKY/WX    TMP DP  RH WIND       PRES   REMARKS
PINE RIDGE     SUNNY     80  53  39 N7        30.19S
CHADRON        SUNNY     83  50  31 MISG      30.18F
ALLIANCE       SUNNY     82  39  21 MISG      30.20F
SIDNEY         SUNNY     82  44  26 NW7       30.23F
WHITECLAY        N/A     80  50  35 N3          N/A
RUSHVILLE        N/A     83  42  22 E10         N/A
GORDON           N/A     84  53  33 N8          N/A
CRESCENT LAKE    N/A     81  48  31 NW7         N/A
LISCO            N/A     85  44  23 CALM        N/A
BIG SPRINGS      N/A     79  60  52 W3          N/A
$$

...OBSERVATIONS IN NORTH CENTRAL NEBRASKA...

CITY           SKY/WX    TMP DP  RH WIND       PRES   REMARKS
VALENTINE      SUNNY     84  52  33 N13       30.12S
THEDFORD       SUNNY     84  51  31 NW12G18   30.13F
AINSWORTH      SUNNY     81  56  42 N10       30.11S THUNDER
O`NEILL        SUNNY     81  63  54 NW6       30.07S
ORD            SUNNY     86  55  34 W10       30.04F
BROKEN BOW     SUNNY     86  56  35 NW10      30.09F
BROWNLEE         N/A     88  50  26 NW14        N/A
SPRINGVIEW       N/A     80  61  52 NW5         N/A
DUNNING          N/A     84  52  33 N9          N/A
ROSE             N/A     85  62  45 W13         N/A
NEWPORT          N/A     79  62  54 W7          N/A
SARGENT          N/A     84  54  35 W10G18      N/A
COMSTOCK         N/A     90  62  38 W7          N/A  HX  90
CHAMBERS         N/A     86  59  40 N3          N/A
EWING            N/A     83  65  54 MISG        N/A
$$

...OBSERVATIONS IN SOUTHWEST NEBRASKA AND FAR NORTHEAST COLORADO...

CITY           SKY/WX    TMP DP  RH WIND       PRES   REMARKS
WRAY             N/A     82  49  31 SW9       30.22S
HOLYOKE        FAIR      81  50  34 SW3       30.20F
IMPERIAL       SUNNY     80  53  39 W10       30.18F
OGALLALA       MOSUNNY   80  49  33 NW9       30.16F
NORTH PLATTE   SUNNY     83  59  44 SW8       30.12F
MCCOOK         SUNNY     84  51  31 W12       30.14F
LEXINGTON      SUNNY     87  56  33 W10       30.10F
PAXTON           N/A     80  61  52 CALM        N/A
SUTHERLAND       N/A     88  55  32 NW5         N/A
BRADY            N/A     82  55  38 S3G14       N/A
GOTHENBURG       N/A     82  52  35 NW8         N/A
CALLAWAY         N/A     80  63  56 W7          N/A
$$

...SOME WEATHER OBSERVATIONS FROM AROUND THE REGION...

CITY           SKY/WX    TMP DP  RH WIND       PRES   REMARKS
DENVER         CLOUDY    67  53  61 S5        30.32S
LARAMIE        MOSUNNY   67  45  45 VRB3      30.38F
CHEYENNE       SUNNY     70  41  34 CALM      30.33F
SCOTTSBLUFF    SUNNY     83  53  35 CALM      30.22F
RAPID CITY     SUNNY     82  52  35 VRB5      30.17F
PIERRE         SUNNY     82  56  40 VRB5      30.07F
WINNER         FAIR      85  54  34 N12G17    30.09F
SIOUX FALLS    PTSUNNY   78  59  51 N9        30.07F
OMAHA          PTSUNNY   80  53  39 S9        30.08F
GRAND ISLAND   SUNNY     84  62  47 S14       30.07F
KANSAS CITY    CLOUDY    79  56  45 CALM      30.12F
WICHITA        PTSUNNY   78  56  46 CALM      30.13F
HAYS           SUNNY     81  55  41 N5        30.15S
GOODLAND       PTSUNNY   78  51  38 W12       30.22F
$$



USA.gov is the U.S. government's official web portal to all federal, state and local government web resources and services.